Location: Mount Kobau Star Party
(49.1167°N, 119.7333°W)
Time: 11:20:12
(UTC-07:00)

ARIANE 6 FM1 Upper Stage - Pass Details

Date: 19 April 2026
Orbit: 526 x 601 km, 62.0° (Epoch: 18 May)

Event Time Altitude Azimuth Distance (km) Brightness Sun altitude
Rises 01:51:59 0° 313° (NW) 2,670 6.5 -28.5°
Reaches altitude 10° 01:54:12 10° 311° (NW) 1,773 5.5 -28.4°
Enters shadow 01:54:33 12° 310° (NW) 1,631 5.3 -28.4°
